Home   Weather   Hat Yai   Past weeks

Flag for Thailand Past Weather in Hat Yai, Thailand — Yesterday and Last 2 Weeks

Now
84 °F

Broken clouds.


Feels Like: 91 °F
Forecast: 76 / 82 °F
Wind: 12 mph from East

Location: Hat Yai Airport

Current Time: Jan 19, 2017 at 3:55:31 pm

Latest Report: Jan 19, 2017 at 3:00 pm


Visibility: N/A

Pressure: 29.80 "Hg

Humidity: 70%

Dew Point: 73 °F

Location of Hat YaiLocation

Past Weather in Hat Yai — Graph

°F

Hat Yai Temperature Yesterday

Maximum temperature yesterday: 88 °F (at 12:30 pm)
Minimum temperature yesterday: 75 °F (at 2:30 am)
Average temperature yesterday: 79 °F

High & Low Weather Summary for the Past Weeks

 TemperatureHumidityPressure
High91 °F (Jan 10, 1:00 pm)100% (Jan 5, 1:00 am)29.92 "Hg (Jan 5, 1:00 am)
Low73 °F (Jan 6, 10:00 pm)52% (Jan 10, 1:00 pm)29.59 "Hg (Jan 7, 4:00 pm)
Average80 °F86%29.78 "Hg
* Reported Jan 4 2:00 pm — Jan 19 2:30 pm, Hat Yai, Weather by CustomWeather, © 2017

Note: Actual official high and low records may vary slightly from our data, if they occured in-between our weather recording intervals... More about our weather records

Advertising

Hat Yai Weather History for the Previous 24 Hours

Scroll right to see more
 ConditionsComfort  
Time TempWeatherWind HumidityBarometerVisibility
2:30 pm
Thu, Jan 19
84 °FPartly sunny.13 mph74%29.83 "HgN/A
2:00 pm84 °FPartly sunny.15 mph70%29.83 "HgN/A
1:30 pm84 °FPartly sunny.13 mph74%29.83 "HgN/A
1:00 pm82 °FScattered showers. Broken clouds.9 mph79%29.86 "HgN/A
12:30 pm84 °FScattered showers. Broken clouds.12 mph79%29.89 "HgN/A
12:00 pm84 °FScattered showers. Broken clouds.9 mph79%29.89 "HgN/A
11:30 am82 °FLight rain. Broken clouds.9 mph84%29.89 "HgN/A
11:00 am81 °FLight rain. Broken clouds.10 mph89%29.92 "HgN/A
10:30 am81 °FLight rain. Broken clouds.6 mph89%29.92 "HgN/A
10:00 am81 °FLight rain. Broken clouds.2 mph89%29.92 "HgN/A
9:30 am79 °FLight rain. Broken clouds.2 mph94%29.92 "Hg6 mi
9:00 am77 °FLight rain. Broken clouds.2 mph100%29.92 "Hg6 mi
8:30 am77 °FLight rain. Cloudy.2 mph100%29.92 "Hg4 mi
8:00 am77 °FLight rain. Broken clouds.2 mph100%29.89 "Hg4 mi
7:30 am77 °FLight rain. Broken clouds.3 mph94%29.89 "Hg4 mi
7:00 am77 °FLight rain. More clouds than sun.No wind94%29.86 "Hg5 mi
6:30 am75 °FLight rain. Partly cloudy.No wind100%29.86 "Hg5 mi
6:00 am75 °FLight rain. Partly cloudy.3 mph100%29.86 "Hg5 mi
5:30 am75 °FRain. Partly cloudy.5 mph94%29.83 "Hg3 mi
5:00 am75 °FRain. Partly cloudy.No wind94%29.83 "Hg2 mi
4:30 am75 °FLight rain. Partly cloudy.3 mph94%29.83 "Hg4 mi
4:00 am75 °FHeavy rain. Partly cloudy.8 mph100%29.83 "Hg1 mi
3:30 am75 °FLight rain. Partly cloudy.5 mph94%29.86 "Hg4 mi
3:00 am75 °FLight rain. Partly cloudy.No wind94%29.86 "Hg5 mi
2:30 am75 °FLight rain. Overcast.No wind94%29.86 "Hg5 mi
2:00 am75 °FThunderstorms. Partly cloudy.3 mph94%29.86 "Hg4 mi
1:30 am75 °FThunderstorms. Partly cloudy.7 mph100%29.89 "Hg4 mi
1:00 am75 °FLight rain. Partly cloudy.No wind100%29.89 "Hg5 mi
12:30 am75 °FLight rain. Partly cloudy.No wind94%29.89 "Hg5 mi
12:00 am77 °FLight rain. Partly cloudy.No wind94%29.92 "HgN/A
11:30 pm
Wed, Jan 18
77 °FLight rain. Partly cloudy.No wind89%29.92 "HgN/A
11:00 pm77 °FThunderstorms. Partly cloudy.5 mph94%29.92 "HgN/A
10:30 pm77 °FThunderstorms. Partly cloudy.9 mph89%29.92 "HgN/A
10:00 pm77 °FThunderstorms. Partly cloudy.6 mph89%29.92 "HgN/A
9:30 pm75 °FThunderstorms. Partly cloudy.9 mph94%29.92 "HgN/A
9:00 pm77 °FStrong thunderstorms. Partly cloudy.18 mph94%29.92 "Hg1 mi
8:30 pm77 °FLight rain. Partly cloudy.3 mph94%29.89 "Hg5 mi
8:00 pm77 °FLight rain. Partly cloudy.8 mph94%29.89 "Hg5 mi
7:30 pm77 °FPartly cloudy.8 mph94%29.86 "Hg6 mi
7:00 pm77 °FLight rain. Partly cloudy.5 mph94%29.86 "Hg4 mi
6:30 pm77 °FLight rain. Partly cloudy.9 mph94%29.83 "Hg5 mi
6:00 pm81 °FLight rain. Broken clouds.7 mph84%29.83 "Hg4 mi
5:30 pm81 °FBroken clouds.13 mph84%29.83 "HgN/A
5:00 pm82 °FBroken clouds.12 mph74%29.80 "HgN/A
4:30 pm82 °FBroken clouds.13 mph79%29.80 "HgN/A
4:00 pm86 °FBroken clouds.14 mph70%29.80 "HgN/A
3:30 pm86 °FBroken clouds.20 mph70%29.80 "HgN/A
3:00 pm84 °FBroken clouds.17 mph74%29.80 "HgN/A
Weather by CustomWeather, © 2017

See weather overviewHow to use our weather pages